Location: Ferintosh
(52.7647°N, 112.9692°W)
Time: 00:39:45
(UTC+00:00)

Vanguard 1 Rocket - Pass Details

Date: 18 May 2024
Orbit: 649 x 4221 km, 34.3° (Epoch: 13 June)

Event Time Altitude Azimuth Distance (km) Brightness Sun altitude
Rises 18:39:24 0° 234° (SW) 7,154 12.1 55.7°
Reaches altitude 10° 18:45:56 10° 225° (SW) 5,482 11.7 56.0°
Maximum altitude 18:56:37 25° 178° (S) 3,163 11.3 56.5°
Drops below altitude 10° 19:03:21 10° 127° (SE) 3,344 10.8 56.7°
Sets 19:06:12 0° 113° (ESE) 3,955 10.9 56.7°
